Regional Weather Roundup
Issued by NWS

Home | Current Version | Previous Version | Text Only | Print | Product List | Glossary On
Versions: 1 2 3 4 5 6 7 8 9 10 11 12 13 14 15 16 17 18 19 20 21 22 23 24 25 26 27 28 29 30 31 32 33 34 35 36 37 38 39 40 41 42 43 44 45 46 47 48 49 50
000
ASUS43 KDMX 260007
RWRIA

WEATHER ROUNDUP FOR IOWA
NATIONAL WEATHER SERVICE DES MOINES IA
700 PM CDT FRI JUL 25 2014

NOTE: "FAIR" INDICATES FEW OR NO CLOUDS BELOW 12,000 FEET WITH NO
SIGNIFICANT WEATHER AND/OR OBSTRUCTIONS TO VISIBILITY.

* - THESE STATIONS ARE NOT NWS STATIONS...THUS NOT UNDER NWS
QUALITY CONTROL.  THEY ALSO DO NOT REPORT WEATHER SUCH
AS PRECIPITATION OR FOG.

IAZ001>003-012>014-020>022-031>034-043>046-260100-
   NORTHWEST IOWA

CITY           SKY/WX    TMP DP  RH WIND       PRES   REMARKS
CARROLL *      PTSUNNY   82  73  74 E7        29.77S HX  88
CHEROKEE *     CLOUDY    79  73  81 CALM      29.78S HX  82
DENISON *      CLOUDY    84  77  79 E3        29.75S HX  94
LE MARS *      CLOUDY    81  73  78 NE5       29.77S HX  85
ORANGE CITY *  CLOUDY    81  72  74 SE3       29.78F HX  84
SHELDON *      CLOUDY    79  72  78 SE6       29.77F HX  82
SIOUX CITY     MOSUNNY   86  73  65 E6        29.75S HX  93
6HR MIN TEMP:  82; 6HR MAX TEMP:  89;

SPENCER        CLOUDY    78  70  76 S3        29.80R HX  80
6HR MIN TEMP:  75; 6HR MAX TEMP:  79;

STORM LAKE *   CLOUDY    77  73  88 CALM      29.80S
$$

IAZ055>058-069>071-079>083-090>094-260100-
   SOUTHWEST IOWA

CITY           SKY/WX    TMP DP  RH WIND       PRES   REMARKS
ATLANTIC *     SUNNY     82  75  78 E9        29.75S HX  89
AUDUBON *      SUNNY     86  79  79 SE6       29.78S HX  99
CLARINDA *     SUNNY     91  79  66 S6        29.73S HX 107
COUNCIL BLFS * SUNNY     88  82  84 E6        29.72F HX 108
CRESTON *      SUNNY     79  72  78 E9        29.78S HX  82
HARLAN  *      SUNNY     82  75  78 E8        29.79S HX  89
LAMONI         SUNNY     80  72  76 VRB5      29.77F HX  84
6HR MIN TEMP:  72; 6HR MAX TEMP:  81;

RED OAK *      SUNNY     91  81  70 CALM      29.73S HX 110
SHENANDOAH *   SUNNY     93  81  66 CALM      29.72S HX 113
$$

IAZ047>049-059>061-072>074-084-260100-
   CENTRAL IOWA

CITY           SKY/WX    TMP DP  RH WIND       PRES   REMARKS
AMES           PTSUNNY   78  70  76 SE7       29.79F HX  80
6HR MIN TEMP:  74; 6HR MAX TEMP:  80;

ANKENY *       MOSUNNY   79  72  78 SE6       29.78F HX  82
CHARITON *     SUNNY     81  72  74 S9        29.80S HX  84
DES MOINES     MOSUNNY   82  70  66 SE7       29.78F HX  86
6HR MIN TEMP:  74; 6HR MAX TEMP:  82;

GRINNELL*      CLOUDY    77  70  78 SE6       29.82F
KNOXVILLE *    SUNNY     81  72  74 SE8       29.79F HX  84
MARSHALLTOWN   CLOUDY    77  69  76 S7        29.81S
6HR MIN TEMP:  75; 6HR MAX TEMP:  79;

PELLA *        PTSUNNY   80  71  74 S6        29.82S HX  83
PERRY *          N/A     79  70  73 SE8       29.77F HX  81
$$

IAZ004>006-015-016-023>025-035-036-260100-
   NORTH CENTRAL IOWA

CITY           SKY/WX    TMP DP  RH WIND       PRES   REMARKS
ALGONA *       CLOUDY    77  70  78 CALM      29.80S
CLARION *      CLOUDY    77  70  78 S6        29.79F
ESTHERVILLE    CLOUDY    77  69  76 S7        29.79S
6HR MIN TEMP:  75; 6HR MAX TEMP:  77;

FORT DODGE *   CLOUDY    79  70  73 SE6       29.79F HX  81
MASON CITY     CLOUDY    77  69  76 S8        29.81F
6HR MIN TEMP:  76; 6HR MAX TEMP:  81;

FOREST CITY *  CLOUDY    75  68  78 S5        29.80F
IOWA FALLS *   CLOUDY    75  68  78 S5        29.82S
$$

IAZ007>011-017>019-026>030-037>042-050>054-066-260100-
   NORTHEAST IOWA

CITY           SKY/WX    TMP DP  RH WIND       PRES   REMARKS
CEDAR RAPIDS   CLOUDY    73  67  81 SE7       29.84S
6HR MIN TEMP:  70; 6HR MAX TEMP:  77;

CHARLES CITY * CLOUDY    77  70  78 S8        29.82F
CLINTON *      CLOUDY    66  63  88 SE12      29.92S
DECORAH *      CLOUDY    72  66  83 SE10G16   29.84S
DUBUQUE        CLOUDY    68  64  87 SE9       29.89S
6HR MIN TEMP:  68; 6HR MAX TEMP:  72;

MONTICELLO *   CLOUDY    73  66  78 SE7       29.87R
OELWEIN *      CLOUDY    73  70  88 SE7       29.85S
WATERLOO       CLOUDY    76  67  73 S9        29.81F
6HR MIN TEMP:  73; 6HR MAX TEMP:  81;

$$

IAZ064-065-067-068-078-260100-
   EAST CENTRAL IOWA

CITY           SKY/WX    TMP DP  RH WIND       PRES   REMARKS
DAVENPORT      CLOUDY    72  63  73 SE9       29.88F
6HR MIN TEMP:  67; 6HR MAX TEMP:  75;

IOWA CITY      CLOUDY    74  68  81 SE7       29.85S
6HR MIN TEMP:  70; 6HR MAX TEMP:  78;

MT. PLEASANT * CLOUDY    75  66  72 SE3       29.85S
MUSCATINE *    CLOUDY    75  66  73 SE7       29.86S
QUAD CITIES    CLOUDY    72  64  76 SE7       29.88S
6HR MIN TEMP:  65; 6HR MAX TEMP:  76; 6HR PCP:  0.06;

$$

IAZ062-063-075>077-085>089-095>099-260100-
   SOUTHEAST IOWA

CITY           SKY/WX    TMP DP  RH WIND       PRES   REMARKS
BURLINGTON     CLOUDY    75  65  70 S6        29.86S
6HR MIN TEMP:  65; 6HR MAX TEMP:  78;

FAIRFIELD *    CLOUDY    77  68  73 SE7       29.84S
FORT MADISON * CLOUDY    75  68  78 CALM      29.86F
KEOKUK *       MOSUNNY   77  66  69 S7        29.84S
OSKALOOSA *    PTSUNNY   77  71  80 S7        29.82F
CENTERVILLE *  SUNNY     77  72  83 SE8       29.82F
OTTUMWA        MOSUNNY   77  69  76 SE6       29.82R
6HR MIN TEMP:  69; 6HR MAX TEMP:  78;

WASHINGTON *   PTSUNNY   75  70  83 S7        29.84F
$$

ABBREVIATIONS USED IN REMARKS
   TC - TEMPERATURES IN CELSIUS
  WCI - WIND CHILL INDEX
   HX - HEAT INDEX
  VSB - VISIBILITY
$$



USA.gov is the U.S. government's official web portal to all federal, state and local government web resources and services.